Year,Month,Day,Hour,Minute,Value (Times are PST for temperature in C)
2008,08,17,00,00,19.10
2008,08,17,00,01,19.10
2008,08,17,00,02,19.10
2008,08,17,00,03,19.10
2008,08,17,00,04,19.10
2008,08,17,00,05,19.10
2008,08,17,00,06,19.10
2008,08,17,00,07,19.10
2008,08,17,00,08,19.00
2008,08,17,00,09,18.90
2008,08,17,00,10,18.90
2008,08,17,00,11,18.90
2008,08,17,00,12,18.90
2008,08,17,00,13,18.90
2008,08,17,00,14,18.90
2008,08,17,00,15,18.90
2008,08,17,00,16,18.90
2008,08,17,00,17,18.90
2008,08,17,00,18,18.90
2008,08,17,00,19,18.90
2008,08,17,00,20,18.90
2008,08,17,00,21,18.90
2008,08,17,00,22,18.90
2008,08,17,00,23,18.90
2008,08,17,00,24,18.90
2008,08,17,00,25,18.90
2008,08,17,00,26,18.80
2008,08,17,00,27,18.80
2008,08,17,00,28,18.70
2008,08,17,00,29,18.70
2008,08,17,00,30,18.60
2008,08,17,00,31,18.60
2008,08,17,00,32,18.50
2008,08,17,00,33,18.50
2008,08,17,00,34,18.50
2008,08,17,00,35,18.50
2008,08,17,00,36,18.40
2008,08,17,00,37,18.40
2008,08,17,00,38,18.40
2008,08,17,00,39,18.40
2008,08,17,00,40,18.40
2008,08,17,00,41,18.40
2008,08,17,00,42,18.30
2008,08,17,00,43,18.30
2008,08,17,00,44,18.30
2008,08,17,00,45,18.20
2008,08,17,00,46,18.20
2008,08,17,00,47,18.20
2008,08,17,00,48,18.10
2008,08,17,00,49,18.10
2008,08,17,00,50,18.00
2008,08,17,00,51,17.90
2008,08,17,00,52,17.80
2008,08,17,00,53,17.70
2008,08,17,00,54,17.70
2008,08,17,00,55,17.70
2008,08,17,00,56,17.60
2008,08,17,00,57,17.60
2008,08,17,00,58,17.50
2008,08,17,00,59,17.50
2008,08,17,01,00,17.50
2008,08,17,01,01,17.50
2008,08,17,01,02,17.40
2008,08,17,01,03,17.40
2008,08,17,01,04,17.40
2008,08,17,01,05,17.40
2008,08,17,01,06,17.40
2008,08,17,01,07,17.30
2008,08,17,01,08,17.30
2008,08,17,01,09,17.30
2008,08,17,01,10,17.30
2008,08,17,01,11,17.30
2008,08,17,01,12,17.30
2008,08,17,01,13,17.30
2008,08,17,01,14,17.30
2008,08,17,01,15,17.30
2008,08,17,01,16,17.30
2008,08,17,01,17,17.30
2008,08,17,01,18,17.30
2008,08,17,01,19,17.20
2008,08,17,01,20,17.20
2008,08,17,01,21,17.20
2008,08,17,01,22,17.20
2008,08,17,01,23,17.20
2008,08,17,01,24,17.20
2008,08,17,01,25,17.10
2008,08,17,01,26,17.10
2008,08,17,01,27,17.10
2008,08,17,01,28,17.10
2008,08,17,01,29,17.10
2008,08,17,01,30,17.10
2008,08,17,01,31,17.10
2008,08,17,01,32,17.10
2008,08,17,01,33,17.00
2008,08,17,01,34,17.00
2008,08,17,01,35,17.00
2008,08,17,01,36,17.00
2008,08,17,01,37,17.00
2008,08,17,01,38,17.00
2008,08,17,01,39,17.00
2008,08,17,01,40,17.00
2008,08,17,01,41,17.00
2008,08,17,01,42,17.00
2008,08,17,01,43,17.00
2008,08,17,01,44,17.00
2008,08,17,01,45,17.00
2008,08,17,01,46,17.00
2008,08,17,01,47,17.10
2008,08,17,01,48,17.10
2008,08,17,01,49,17.10
2008,08,17,01,50,17.10
2008,08,17,01,51,17.10
2008,08,17,01,52,17.10
2008,08,17,01,53,17.10
2008,08,17,01,54,17.00
2008,08,17,01,55,17.00
2008,08,17,01,56,17.00
2008,08,17,01,57,17.00
2008,08,17,01,58,17.00
2008,08,17,01,59,16.90
2008,08,17,02,00,16.90
2008,08,17,02,01,16.90
2008,08,17,02,02,16.90
2008,08,17,02,03,16.90
2008,08,17,02,04,16.80
2008,08,17,02,05,16.80
2008,08,17,02,06,16.80
2008,08,17,02,07,16.80
2008,08,17,02,08,16.80
2008,08,17,02,09,16.80
2008,08,17,02,10,16.80
2008,08,17,02,11,16.80
2008,08,17,02,12,16.80
2008,08,17,02,13,16.80
2008,08,17,02,14,16.80
2008,08,17,02,15,16.90
2008,08,17,02,16,16.90
2008,08,17,02,17,16.90
2008,08,17,02,18,16.90
2008,08,17,02,19,16.80
2008,08,17,02,20,16.80
2008,08,17,02,21,16.80
2008,08,17,02,22,16.80
2008,08,17,02,23,16.80
2008,08,17,02,24,16.80
2008,08,17,02,25,16.80
2008,08,17,02,26,16.80
2008,08,17,02,27,16.80
2008,08,17,02,28,16.80
2008,08,17,02,29,16.80
2008,08,17,02,30,16.80
2008,08,17,02,31,16.80
2008,08,17,02,32,16.80
2008,08,17,02,33,16.80
2008,08,17,02,34,16.80
2008,08,17,02,35,16.70
2008,08,17,02,36,16.70
2008,08,17,02,37,16.70
2008,08,17,02,38,16.70
2008,08,17,02,39,16.70
2008,08,17,02,40,16.70
2008,08,17,02,41,16.70
2008,08,17,02,42,16.70
2008,08,17,02,43,16.70
2008,08,17,02,44,16.70
2008,08,17,02,45,16.70
2008,08,17,02,46,16.70
2008,08,17,02,47,16.70
2008,08,17,02,48,16.70
2008,08,17,02,49,16.70
2008,08,17,02,50,16.70
2008,08,17,02,51,16.70
2008,08,17,02,52,16.70
2008,08,17,02,53,16.70
2008,08,17,02,54,16.70
2008,08,17,02,55,16.70
2008,08,17,02,56,16.70
2008,08,17,02,57,16.70
2008,08,17,02,58,16.70
2008,08,17,02,59,16.70
2008,08,17,03,00,16.70
2008,08,17,03,01,16.70
2008,08,17,03,02,16.70
2008,08,17,03,03,16.70
2008,08,17,03,04,16.70
2008,08,17,03,05,16.70
2008,08,17,03,06,16.70
2008,08,17,03,07,16.70
2008,08,17,03,08,16.70
2008,08,17,03,09,16.60
2008,08,17,03,10,16.60
2008,08,17,03,11,16.60
2008,08,17,03,12,16.60
2008,08,17,03,13,16.50
2008,08,17,03,14,16.40
2008,08,17,03,15,16.40
2008,08,17,03,16,16.40
2008,08,17,03,17,16.40
2008,08,17,03,18,16.40
2008,08,17,03,19,16.40
2008,08,17,03,20,16.40
2008,08,17,03,21,16.30
2008,08,17,03,22,16.30
2008,08,17,03,23,16.30
2008,08,17,03,24,16.30
2008,08,17,03,25,16.30
2008,08,17,03,26,16.30
2008,08,17,03,27,16.30
2008,08,17,03,28,16.40
2008,08,17,03,29,16.40
2008,08,17,03,30,16.40
2008,08,17,03,31,16.40
2008,08,17,03,32,16.40
2008,08,17,03,33,16.40
2008,08,17,03,34,16.40
2008,08,17,03,35,16.40
2008,08,17,03,36,16.40
2008,08,17,03,37,16.40
2008,08,17,03,38,16.40
2008,08,17,03,39,16.40
2008,08,17,03,40,16.30
2008,08,17,03,41,16.30
2008,08,17,03,42,16.30
2008,08,17,03,43,16.30
2008,08,17,03,44,16.30
2008,08,17,03,45,16.30
2008,08,17,03,46,16.30
2008,08,17,03,47,16.30
2008,08,17,03,48,16.30
2008,08,17,03,49,16.30
2008,08,17,03,50,16.20
2008,08,17,03,51,16.20
2008,08,17,03,52,16.20
2008,08,17,03,53,16.20
2008,08,17,03,54,16.20
2008,08,17,03,55,16.20
2008,08,17,03,56,16.20
2008,08,17,03,57,16.10
2008,08,17,03,58,16.10
2008,08,17,03,59,16.10
2008,08,17,04,00,16.10
2008,08,17,04,01,16.10
2008,08,17,04,02,16.10
2008,08,17,04,03,16.10
2008,08,17,04,04,16.10
2008,08,17,04,05,16.20
2008,08,17,04,06,16.10
2008,08,17,04,07,16.10
2008,08,17,04,08,16.10
2008,08,17,04,09,16.10
2008,08,17,04,10,16.10
2008,08,17,04,11,16.10
2008,08,17,04,12,16.10
2008,08,17,04,13,16.10
2008,08,17,04,14,16.10
2008,08,17,04,15,16.10
2008,08,17,04,16,16.10
2008,08,17,04,17,16.10
2008,08,17,04,18,16.10
2008,08,17,04,19,16.10
2008,08,17,04,20,16.10
2008,08,17,04,21,16.10
2008,08,17,04,22,16.00
2008,08,17,04,23,15.90
2008,08,17,04,24,15.90
2008,08,17,04,25,15.90
2008,08,17,04,26,15.90
2008,08,17,04,27,15.80
2008,08,17,04,28,15.80
2008,08,17,04,29,15.80
2008,08,17,04,30,15.80
2008,08,17,04,31,15.80
2008,08,17,04,32,15.80
2008,08,17,04,33,15.80
2008,08,17,04,34,15.80
2008,08,17,04,35,15.80
2008,08,17,04,36,15.80
2008,08,17,04,37,15.80
2008,08,17,04,38,15.80
2008,08,17,04,39,15.80
2008,08,17,04,40,15.80
2008,08,17,04,41,15.80
2008,08,17,04,42,15.70
2008,08,17,04,43,15.70
2008,08,17,04,44,15.70
2008,08,17,04,45,15.70
2008,08,17,04,46,15.70
2008,08,17,04,47,15.70
2008,08,17,04,48,15.70
2008,08,17,04,49,15.70
2008,08,17,04,50,15.60
2008,08,17,04,51,15.60
2008,08,17,04,52,15.60
2008,08,17,04,53,15.60
2008,08,17,04,54,15.60
2008,08,17,04,55,15.60
2008,08,17,04,56,15.70
2008,08,17,04,57,15.70
2008,08,17,04,58,15.60
2008,08,17,04,59,15.60
2008,08,17,05,00,15.60
2008,08,17,05,01,15.60
2008,08,17,05,02,15.60
2008,08,17,05,03,15.70
2008,08,17,05,04,15.70
2008,08,17,05,05,15.70
2008,08,17,05,06,15.80
2008,08,17,05,07,15.80
2008,08,17,05,08,15.80
2008,08,17,05,09,15.80
2008,08,17,05,10,15.80
2008,08,17,05,11,15.80
2008,08,17,05,12,15.80
2008,08,17,05,13,15.80
2008,08,17,05,14,15.80
2008,08,17,05,15,15.80
2008,08,17,05,16,15.80
2008,08,17,05,17,15.80
2008,08,17,05,18,15.80
2008,08,17,05,19,15.80
2008,08,17,05,20,15.80
2008,08,17,05,21,15.80
2008,08,17,05,22,15.80
2008,08,17,05,23,15.80
2008,08,17,05,24,15.80
2008,08,17,05,25,15.80
2008,08,17,05,26,15.80
2008,08,17,05,27,15.80
2008,08,17,05,28,15.80
2008,08,17,05,29,15.80
2008,08,17,05,30,15.80
2008,08,17,05,31,15.80
2008,08,17,05,32,15.80
2008,08,17,05,33,15.80
2008,08,17,05,34,15.80
2008,08,17,05,35,15.80
2008,08,17,05,36,15.80
2008,08,17,05,37,15.80
2008,08,17,05,38,15.80
2008,08,17,05,39,15.80
2008,08,17,05,40,15.80
2008,08,17,05,41,15.80
2008,08,17,05,42,15.80
2008,08,17,05,43,15.80
2008,08,17,05,44,15.80
2008,08,17,05,45,15.80
2008,08,17,05,46,15.80
2008,08,17,05,47,15.80
2008,08,17,05,48,15.80
2008,08,17,05,49,15.80
2008,08,17,05,50,15.80
2008,08,17,05,51,15.80
2008,08,17,05,52,15.80
2008,08,17,05,53,15.80
2008,08,17,05,54,15.80
2008,08,17,05,55,15.80
2008,08,17,05,56,15.80
2008,08,17,05,57,15.80
2008,08,17,05,58,15.80
2008,08,17,05,59,15.80
2008,08,17,06,00,15.70
2008,08,17,06,01,15.60
2008,08,17,06,02,15.50
2008,08,17,06,03,15.40
2008,08,17,06,04,15.30
2008,08,17,06,05,15.30
2008,08,17,06,06,15.20
2008,08,17,06,07,15.20
2008,08,17,06,08,15.10
2008,08,17,06,09,15.00
2008,08,17,06,10,14.90
2008,08,17,06,11,14.80
2008,08,17,06,12,14.80
2008,08,17,06,13,14.70
2008,08,17,06,14,14.70
2008,08,17,06,15,14.60
2008,08,17,06,16,14.60
2008,08,17,06,17,14.50
2008,08,17,06,18,14.50
2008,08,17,06,19,14.40
2008,08,17,06,20,14.40
2008,08,17,06,21,14.30
2008,08,17,06,22,14.30
2008,08,17,06,23,14.20
2008,08,17,06,24,14.20
2008,08,17,06,25,14.20
2008,08,17,06,26,14.10
2008,08,17,06,27,14.10
2008,08,17,06,28,14.00
2008,08,17,06,29,14.00
2008,08,17,06,30,13.90
2008,08,17,06,31,13.90
2008,08,17,06,32,13.80
2008,08,17,06,33,13.70
2008,08,17,06,34,13.70
2008,08,17,06,35,13.70
2008,08,17,06,36,13.70
2008,08,17,06,37,13.60
2008,08,17,06,38,13.60
2008,08,17,06,39,13.50
2008,08,17,06,40,13.50
2008,08,17,06,41,13.40
2008,08,17,06,42,13.40
2008,08,17,06,43,13.30
2008,08,17,06,44,13.30
2008,08,17,06,45,13.30
2008,08,17,06,46,13.30
2008,08,17,06,47,13.20
2008,08,17,06,48,13.20
2008,08,17,06,49,13.20
2008,08,17,06,50,13.10
2008,08,17,06,51,13.10
2008,08,17,06,52,13.00
2008,08,17,06,53,13.00
2008,08,17,06,54,12.90
2008,08,17,06,55,12.90
2008,08,17,06,56,12.90
2008,08,17,06,57,12.80
2008,08,17,06,58,12.80
2008,08,17,06,59,12.80
2008,08,17,07,00,12.80
2008,08,17,07,01,12.70
2008,08,17,07,02,12.70
2008,08,17,07,03,12.70
2008,08,17,07,04,12.70
2008,08,17,07,05,12.70
2008,08,17,07,06,12.70
2008,08,17,07,07,12.70
2008,08,17,07,08,12.80
2008,08,17,07,09,12.80
2008,08,17,07,10,12.80
2008,08,17,07,11,12.80
2008,08,17,07,12,12.80
2008,08,17,07,13,12.80
2008,08,17,07,14,12.80
2008,08,17,07,15,12.80
2008,08,17,07,16,12.90
2008,08,17,07,17,12.90
2008,08,17,07,18,12.90
2008,08,17,07,19,12.90
2008,08,17,07,20,13.00
2008,08,17,07,21,13.00
2008,08,17,07,22,13.10
2008,08,17,07,23,13.10
2008,08,17,07,24,13.10
2008,08,17,07,25,13.20
2008,08,17,07,26,13.30
2008,08,17,07,27,13.30
2008,08,17,07,28,13.30
2008,08,17,07,29,13.30
2008,08,17,07,30,13.30
2008,08,17,07,31,13.40
2008,08,17,07,32,13.40
2008,08,17,07,33,13.50
2008,08,17,07,34,13.60
2008,08,17,07,35,13.60
2008,08,17,07,36,13.70
2008,08,17,07,37,13.70
2008,08,17,07,38,13.70
2008,08,17,07,39,13.70
2008,08,17,07,40,13.70
2008,08,17,07,41,13.70
2008,08,17,07,42,13.70
2008,08,17,07,43,13.70
2008,08,17,07,44,13.60
2008,08,17,07,45,13.60
2008,08,17,07,46,13.60
2008,08,17,07,47,13.60
2008,08,17,07,48,13.60
2008,08,17,07,49,13.60
2008,08,17,07,50,13.60
2008,08,17,07,51,13.50
2008,08,17,07,52,13.50
2008,08,17,07,53,13.50
2008,08,17,07,54,13.50
2008,08,17,07,55,13.50
2008,08,17,07,56,13.50
2008,08,17,07,57,13.50
2008,08,17,07,58,13.50
2008,08,17,07,59,13.50
2008,08,17,08,00,13.50
2008,08,17,08,01,13.60
2008,08,17,08,02,13.60
2008,08,17,08,03,13.60
2008,08,17,08,04,13.60
2008,08,17,08,05,13.60
2008,08,17,08,06,13.60
2008,08,17,08,07,13.70
2008,08,17,08,08,13.70
2008,08,17,08,09,13.70
2008,08,17,08,10,13.70
2008,08,17,08,11,13.70
2008,08,17,08,12,13.70
2008,08,17,08,13,13.80
2008,08,17,08,14,13.80
2008,08,17,08,15,13.90
2008,08,17,08,16,13.90
2008,08,17,08,17,14.00
2008,08,17,08,18,14.00
2008,08,17,08,19,14.10
2008,08,17,08,20,14.20
2008,08,17,08,21,14.20
2008,08,17,08,22,14.30
2008,08,17,08,23,14.40
2008,08,17,08,24,14.50
2008,08,17,08,25,14.60
2008,08,17,08,26,14.70
2008,08,17,08,27,14.70
2008,08,17,08,28,14.80
2008,08,17,08,29,14.90
2008,08,17,08,30,15.00
2008,08,17,08,31,15.10
2008,08,17,08,32,15.20
2008,08,17,08,33,15.30
2008,08,17,08,34,15.50
2008,08,17,08,35,15.60
2008,08,17,08,36,15.70
2008,08,17,08,37,15.80
2008,08,17,08,38,16.00
2008,08,17,08,39,16.20
2008,08,17,08,40,16.40
2008,08,17,08,41,16.60
2008,08,17,08,42,16.80
2008,08,17,08,43,17.00
2008,08,17,08,44,17.10
2008,08,17,08,45,17.30
2008,08,17,08,46,17.40
2008,08,17,08,47,17.50
2008,08,17,08,48,17.50
2008,08,17,08,49,17.60
2008,08,17,08,50,17.70
2008,08,17,08,51,17.80
2008,08,17,08,52,17.90
2008,08,17,08,53,18.10
2008,08,17,08,54,18.20
2008,08,17,08,55,18.40
2008,08,17,08,56,18.50
2008,08,17,08,57,18.60
2008,08,17,08,58,18.70
2008,08,17,08,59,18.80
2008,08,17,09,00,18.80
2008,08,17,09,01,18.70
2008,08,17,09,02,18.70
2008,08,17,09,03,18.70
2008,08,17,09,04,18.60
2008,08,17,09,05,18.60
2008,08,17,09,06,18.60
2008,08,17,09,07,18.60
2008,08,17,09,08,18.60
2008,08,17,09,09,18.60
2008,08,17,09,10,18.70
2008,08,17,09,11,18.70
2008,08,17,09,12,18.80
2008,08,17,09,13,18.80
2008,08,17,09,14,18.90
2008,08,17,09,15,18.90
2008,08,17,09,16,18.90
2008,08,17,09,17,18.90
2008,08,17,09,18,18.90
2008,08,17,09,19,18.90
2008,08,17,09,20,19.10
2008,08,17,09,21,19.10
2008,08,17,09,22,19.10
2008,08,17,09,23,19.10
2008,08,17,09,24,19.10
2008,08,17,09,25,19.10
2008,08,17,09,26,19.10
2008,08,17,09,27,19.10
2008,08,17,09,28,19.10
2008,08,17,09,29,19.10
2008,08,17,09,30,19.20
2008,08,17,09,31,19.20
2008,08,17,09,32,19.30
2008,08,17,09,33,19.40
2008,08,17,09,34,19.40
2008,08,17,09,35,19.50
2008,08,17,09,36,19.60
2008,08,17,09,37,19.70
2008,08,17,09,38,19.80
2008,08,17,09,39,19.90
2008,08,17,09,40,20.00
2008,08,17,09,41,20.20
2008,08,17,09,42,20.30
2008,08,17,09,43,20.50
2008,08,17,09,44,20.60
2008,08,17,09,45,20.80
2008,08,17,09,46,20.90
2008,08,17,09,47,21.00
2008,08,17,09,48,21.10
2008,08,17,09,49,21.20
2008,08,17,09,50,21.30
2008,08,17,09,51,21.40
2008,08,17,09,52,21.60
2008,08,17,09,53,21.70
2008,08,17,09,54,21.70
2008,08,17,09,55,21.80
2008,08,17,09,56,22.00
2008,08,17,09,57,22.10
2008,08,17,09,58,22.20
2008,08,17,09,59,22.30
2008,08,17,10,00,22.40
2008,08,17,10,01,22.40
2008,08,17,10,02,22.40
2008,08,17,10,03,22.50
2008,08,17,10,04,22.50
2008,08,17,10,05,22.50
2008,08,17,10,06,22.60
2008,08,17,10,07,22.70
2008,08,17,10,08,22.80
2008,08,17,10,09,22.80
2008,08,17,10,10,22.80
2008,08,17,10,11,22.80
2008,08,17,10,12,22.80
2008,08,17,10,13,22.80
2008,08,17,10,14,22.80
2008,08,17,10,15,22.90
2008,08,17,10,16,22.90
2008,08,17,10,17,22.90
2008,08,17,10,18,23.10
2008,08,17,10,19,23.20
2008,08,17,10,20,23.20
2008,08,17,10,21,23.30
2008,08,17,10,22,23.30
2008,08,17,10,23,23.40
2008,08,17,10,24,23.40
2008,08,17,10,25,23.50
2008,08,17,10,26,23.70
2008,08,17,10,27,23.70
2008,08,17,10,28,23.80
2008,08,17,10,29,23.90
2008,08,17,10,30,23.90
2008,08,17,10,31,24.10
2008,08,17,10,32,24.10
2008,08,17,10,33,24.10
2008,08,17,10,34,24.20
2008,08,17,10,35,24.20
2008,08,17,10,36,24.20
2008,08,17,10,37,24.30
2008,08,17,10,38,24.30
2008,08,17,10,39,24.40
2008,08,17,10,40,24.50
2008,08,17,10,41,24.50
2008,08,17,10,42,24.60
2008,08,17,10,43,24.60
2008,08,17,10,44,24.70
2008,08,17,10,45,24.60
2008,08,17,10,46,24.70
2008,08,17,10,47,24.70
2008,08,17,10,48,24.70
2008,08,17,10,49,24.80
2008,08,17,10,50,24.90
2008,08,17,10,51,24.90
2008,08,17,10,52,25.00
2008,08,17,10,53,25.10
2008,08,17,10,54,25.10
2008,08,17,10,55,25.20
2008,08,17,10,56,25.00
2008,08,17,10,57,24.90
2008,08,17,10,58,24.80
2008,08,17,10,59,24.80
2008,08,17,11,00,24.80
2008,08,17,11,01,24.80
2008,08,17,11,02,24.70
2008,08,17,11,03,24.70
2008,08,17,11,04,24.70
2008,08,17,11,05,24.70
2008,08,17,11,06,24.70
2008,08,17,11,07,24.70
2008,08,17,11,08,24.80
2008,08,17,11,09,24.80
2008,08,17,11,10,24.70
2008,08,17,11,11,24.60
2008,08,17,11,12,24.50
2008,08,17,11,13,24.40
2008,08,17,11,14,24.30
2008,08,17,11,15,24.20
2008,08,17,11,16,24.10
2008,08,17,11,17,24.00
2008,08,17,11,18,23.90
2008,08,17,11,19,23.80
2008,08,17,11,20,23.70
2008,08,17,11,21,23.70
2008,08,17,11,22,23.60
2008,08,17,11,23,23.60
2008,08,17,11,24,23.60
2008,08,17,11,25,23.60
2008,08,17,11,26,23.60
2008,08,17,11,27,23.50
2008,08,17,11,28,23.40
2008,08,17,11,29,23.40
2008,08,17,11,30,23.40
2008,08,17,11,31,23.50
2008,08,17,11,32,23.60
2008,08,17,11,33,23.60
2008,08,17,11,34,23.60
2008,08,17,11,35,23.60
2008,08,17,11,36,23.60
2008,08,17,11,37,23.60
2008,08,17,11,38,23.70
2008,08,17,11,39,23.70
2008,08,17,11,40,23.80
2008,08,17,11,41,23.80
2008,08,17,11,42,23.80
2008,08,17,11,43,23.90
2008,08,17,11,44,23.90
2008,08,17,11,45,23.90
2008,08,17,11,46,23.90
2008,08,17,11,47,23.90
2008,08,17,11,48,23.90
2008,08,17,11,49,23.90
2008,08,17,11,50,23.90
2008,08,17,11,51,23.90
2008,08,17,11,52,23.80
2008,08,17,11,53,23.80
2008,08,17,11,54,23.80
2008,08,17,11,55,23.80
2008,08,17,11,56,23.90
2008,08,17,11,57,23.90
2008,08,17,11,58,24.00
2008,08,17,11,59,24.00
2008,08,17,12,00,23.90
2008,08,17,12,01,23.80
2008,08,17,12,02,23.70
2008,08,17,12,03,23.70
2008,08,17,12,04,23.60
2008,08,17,12,05,23.60
2008,08,17,12,06,23.50
2008,08,17,12,07,23.50
2008,08,17,12,08,23.60
2008,08,17,12,09,23.60
2008,08,17,12,10,23.60
2008,08,17,12,11,23.60
2008,08,17,12,12,23.60
2008,08,17,12,13,23.60
2008,08,17,12,14,23.70
2008,08,17,12,15,23.70
2008,08,17,12,16,23.80
2008,08,17,12,17,23.90
2008,08,17,12,18,24.00
2008,08,17,12,19,24.10
2008,08,17,12,20,24.10
2008,08,17,12,21,24.30
2008,08,17,12,22,24.40
2008,08,17,12,23,24.50
2008,08,17,12,24,24.50
2008,08,17,12,25,24.60
2008,08,17,12,26,24.70
2008,08,17,12,27,24.70
2008,08,17,12,28,24.70
2008,08,17,12,29,24.80
2008,08,17,12,30,24.80
2008,08,17,12,31,25.00
2008,08,17,12,32,25.10
2008,08,17,12,33,25.20
2008,08,17,12,34,25.30
2008,08,17,12,35,25.40
2008,08,17,12,36,25.50
2008,08,17,12,37,25.50
2008,08,17,12,38,25.50
2008,08,17,12,39,25.50
2008,08,17,12,40,25.60
2008,08,17,12,41,25.60
2008,08,17,12,42,25.60
2008,08,17,12,43,25.70
2008,08,17,12,44,25.80
2008,08,17,12,45,25.80
2008,08,17,12,46,25.90
2008,08,17,12,47,25.90
2008,08,17,12,48,26.00
2008,08,17,12,49,26.00
2008,08,17,12,50,26.00
2008,08,17,12,51,26.00
2008,08,17,12,52,26.00
2008,08,17,12,53,25.90
2008,08,17,12,54,26.00
2008,08,17,12,55,26.00
2008,08,17,12,56,26.00
2008,08,17,12,57,25.90
2008,08,17,12,58,25.80
2008,08,17,12,59,25.60
2008,08,17,13,00,25.60
2008,08,17,13,01,25.50
2008,08,17,13,02,25.40
2008,08,17,13,03,25.40
2008,08,17,13,04,25.40
2008,08,17,13,05,25.30
2008,08,17,13,06,25.30
2008,08,17,13,07,25.30
2008,08,17,13,08,25.30
2008,08,17,13,09,25.40
2008,08,17,13,10,25.20
2008,08,17,13,11,25.00
2008,08,17,13,12,25.00
2008,08,17,13,13,24.90
2008,08,17,13,14,24.90
2008,08,17,13,15,24.90
2008,08,17,13,16,24.90
2008,08,17,13,17,24.90
2008,08,17,13,18,24.90
2008,08,17,13,19,24.70
2008,08,17,13,20,24.60
2008,08,17,13,21,24.50
2008,08,17,13,22,24.40
2008,08,17,13,23,24.40
2008,08,17,13,24,24.30
2008,08,17,13,25,24.30
2008,08,17,13,26,24.20
2008,08,17,13,27,24.10
2008,08,17,13,28,24.00
2008,08,17,13,29,23.90
2008,08,17,13,30,23.90
2008,08,17,13,31,23.90
2008,08,17,13,32,23.90
2008,08,17,13,33,23.90
2008,08,17,13,34,23.80
2008,08,17,13,35,23.80
2008,08,17,13,36,23.80
2008,08,17,13,37,23.70
2008,08,17,13,38,23.60
2008,08,17,13,39,23.40
2008,08,17,13,40,23.30
2008,08,17,13,41,23.10
2008,08,17,13,42,22.90
2008,08,17,13,43,22.90
2008,08,17,13,44,22.80
2008,08,17,13,45,22.80
2008,08,17,13,46,22.70
2008,08,17,13,47,22.70
2008,08,17,13,48,22.70
2008,08,17,13,49,22.70
2008,08,17,13,50,22.60
2008,08,17,13,51,22.50
2008,08,17,13,52,22.50
2008,08,17,13,53,22.40
2008,08,17,13,54,22.40
2008,08,17,13,55,22.40
2008,08,17,13,56,22.30
2008,08,17,13,57,22.20
2008,08,17,13,58,22.20
2008,08,17,13,59,22.10
2008,08,17,14,00,22.10
2008,08,17,14,01,22.10
2008,08,17,14,02,22.10
2008,08,17,14,03,22.20
2008,08,17,14,04,22.20
2008,08,17,14,05,22.20
2008,08,17,14,06,22.30
2008,08,17,14,07,22.30
2008,08,17,14,08,22.30
2008,08,17,14,09,22.40
2008,08,17,14,10,22.50
2008,08,17,14,11,22.60
2008,08,17,14,12,22.60
2008,08,17,14,13,22.70
2008,08,17,14,14,22.80
2008,08,17,14,15,22.90
2008,08,17,14,16,22.80
2008,08,17,14,17,22.80
2008,08,17,14,18,22.90
2008,08,17,14,19,22.90
2008,08,17,14,20,22.90
2008,08,17,14,21,23.00
2008,08,17,14,22,23.10
2008,08,17,14,23,23.20
2008,08,17,14,24,23.30
2008,08,17,14,25,23.30
2008,08,17,14,26,23.40
2008,08,17,14,27,23.40
2008,08,17,14,28,23.60
2008,08,17,14,29,23.70
2008,08,17,14,30,23.70
2008,08,17,14,31,23.80
2008,08,17,14,32,23.90
2008,08,17,14,33,24.00
2008,08,17,14,34,24.10
2008,08,17,14,35,24.10
2008,08,17,14,36,24.10
2008,08,17,14,37,24.20
2008,08,17,14,38,24.20
2008,08,17,14,39,24.20
2008,08,17,14,40,24.30
2008,08,17,14,41,24.30
2008,08,17,14,42,24.30
2008,08,17,14,43,24.30
2008,08,17,14,44,24.40
2008,08,17,14,45,24.40
2008,08,17,14,46,24.40
2008,08,17,14,47,24.40
2008,08,17,14,48,24.50
2008,08,17,14,49,24.60
2008,08,17,14,50,24.60
2008,08,17,14,51,24.60
2008,08,17,14,52,24.60
2008,08,17,14,53,24.60
2008,08,17,14,54,24.60
2008,08,17,14,55,24.60
2008,08,17,14,56,24.60
2008,08,17,14,57,24.70
2008,08,17,14,58,24.70
2008,08,17,14,59,24.70
2008,08,17,15,00,24.80
2008,08,17,15,01,24.90
2008,08,17,15,02,24.90
2008,08,17,15,03,24.90
2008,08,17,15,04,25.10
2008,08,17,15,05,25.20
2008,08,17,15,06,25.20
2008,08,17,15,07,25.30
2008,08,17,15,08,25.30
2008,08,17,15,09,25.30
2008,08,17,15,10,25.20
2008,08,17,15,11,25.10
2008,08,17,15,12,24.90
2008,08,17,15,13,24.60
2008,08,17,15,14,24.40
2008,08,17,15,15,24.10
2008,08,17,15,16,23.90
2008,08,17,15,17,23.70
2008,08,17,15,18,23.60
2008,08,17,15,19,23.60
2008,08,17,15,20,23.50
2008,08,17,15,21,23.40
2008,08,17,15,22,23.40
2008,08,17,15,23,23.40
2008,08,17,15,24,23.40
2008,08,17,15,25,23.30
2008,08,17,15,26,23.30
2008,08,17,15,27,23.30
2008,08,17,15,28,23.30
2008,08,17,15,29,23.30
2008,08,17,15,30,23.30
2008,08,17,15,31,23.30
2008,08,17,15,32,23.30
2008,08,17,15,33,23.20
2008,08,17,15,34,23.10
2008,08,17,15,35,23.00
2008,08,17,15,36,22.90
2008,08,17,15,37,22.80
2008,08,17,15,38,22.80
2008,08,17,15,39,22.70
2008,08,17,15,40,22.70
2008,08,17,15,41,22.70
2008,08,17,15,42,22.70
2008,08,17,15,43,22.70
2008,08,17,15,44,22.70
2008,08,17,15,45,22.60
2008,08,17,15,46,22.60
2008,08,17,15,47,22.60
2008,08,17,15,48,22.60
2008,08,17,15,49,22.60
2008,08,17,15,50,22.60
2008,08,17,15,51,22.70
2008,08,17,15,52,22.70
2008,08,17,15,53,22.70
2008,08,17,15,54,22.80
2008,08,17,15,55,22.80
2008,08,17,15,56,22.80
2008,08,17,15,57,22.90
2008,08,17,15,58,22.90
2008,08,17,15,59,22.90
2008,08,17,16,00,22.90
2008,08,17,16,01,23.00
2008,08,17,16,02,23.10
2008,08,17,16,03,23.10
2008,08,17,16,04,23.10
2008,08,17,16,05,23.20
2008,08,17,16,06,23.20
2008,08,17,16,07,23.30
2008,08,17,16,08,23.30
2008,08,17,16,09,23.30
2008,08,17,16,10,23.40
2008,08,17,16,11,23.40
2008,08,17,16,12,23.50
2008,08,17,16,13,23.60
2008,08,17,16,14,23.60
2008,08,17,16,15,23.60
2008,08,17,16,16,23.60
2008,08,17,16,17,23.60
2008,08,17,16,18,23.60
2008,08,17,16,19,23.50
2008,08,17,16,20,23.40
2008,08,17,16,21,23.40
2008,08,17,16,22,23.40
2008,08,17,16,23,23.40
2008,08,17,16,24,23.40
2008,08,17,16,25,23.40
2008,08,17,16,26,23.40
2008,08,17,16,27,23.40
2008,08,17,16,28,23.40
2008,08,17,16,29,23.40
2008,08,17,16,30,23.40
2008,08,17,16,31,23.40
2008,08,17,16,32,23.40
2008,08,17,16,33,23.30
2008,08,17,16,34,23.40
2008,08,17,16,35,23.30
2008,08,17,16,36,23.30
2008,08,17,16,37,23.30
2008,08,17,16,38,23.30
2008,08,17,16,39,23.20
2008,08,17,16,40,23.10
2008,08,17,16,41,23.10
2008,08,17,16,42,23.10
2008,08,17,16,43,23.10
2008,08,17,16,44,23.10
2008,08,17,16,45,23.00
2008,08,17,16,46,22.90
2008,08,17,16,47,22.90
2008,08,17,16,48,22.90
2008,08,17,16,49,22.90
2008,08,17,16,50,22.90
2008,08,17,16,51,22.80
2008,08,17,16,52,22.80
2008,08,17,16,53,22.80
2008,08,17,16,54,22.80
2008,08,17,16,55,22.80
2008,08,17,16,56,22.80
2008,08,17,16,57,22.80
2008,08,17,16,58,22.90
2008,08,17,16,59,22.90
2008,08,17,17,00,22.90
2008,08,17,17,01,22.90
2008,08,17,17,02,23.00
2008,08,17,17,03,23.10
2008,08,17,17,04,23.20
2008,08,17,17,05,23.20
2008,08,17,17,06,23.30
2008,08,17,17,07,23.30
2008,08,17,17,08,23.30
2008,08,17,17,09,23.30
2008,08,17,17,10,23.30
2008,08,17,17,11,23.30
2008,08,17,17,12,23.30
2008,08,17,17,13,23.20
2008,08,17,17,14,23.20
2008,08,17,17,15,23.20
2008,08,17,17,16,23.10
2008,08,17,17,17,23.10
2008,08,17,17,18,22.90
2008,08,17,17,19,22.90